#timestamp,LO_Frequency,Hit,StdDev 
1617822015.3,286046990.7,Y
1617822035.1,286046993.6,P
1617822055.9,286046994.0,P
1617822075.7,286046993.9,P
1617822095.6,286046993.6,Y
1617822115.4,286047001.4,P
1617822135.2,286047004.5,N
1617822155.1,286047005.2,N
1617822156.0,286047005.2,N
1617822175.8,286047004.4,N
1617822195.6,286047004.3,N
1617822215.5,286047002.6,N
1617822235.3,286047000.0,N
1617822255.1,286046999.7,N
1617822275.9,286047000.0,N
1617822295.7,286047002.1,N
1617822315.6,286047006.0,N
1617822335.4,286047004.9,N
1617822355.2,286047005.0,N
1617822375.1,286047007.4,N
1617822376.0,286047007.4,N
1617822395.8,286047006.5,N
1617822415.7,286047010.0,Y
1617822435.5,286047006.5,P
1617822455.3,286047005.1,P
1617822475.2,286047005.0,P
1617822495.9,286047005.1,Y
1617822515.7,286046996.7,P
1617822535.6,286046996.8,N
1617822555.4,286047000.0,N
1617822575.3,286046998.1,N
1617822595.1,286046998.8,N
1617822596.0,286046998.8,N
1617822645.9,286047003.2,E
1617822655.8,286047003.2,N
1617822675.6,286047002.5,P
1617822695.5,286047002.5,P
1617822715.3,286047002.7,Y
1617822735.1,286046997.5,P
1617822755.9,286046996.2,N
1617822775.7,286046994.9,N
1617822795.6,286046995.1,N
1617822815.4,286046995.6,N
1617822835.2,286046995.9,N
1617822855.1,286046996.4,N
1617822856.0,286046996.4,N
1617822875.8,286046995.8,N
1617822895.6,286046996.0,N
1617822915.5,286046997.8,N
1617822935.3,286046998.7,N
1617822955.2,286046995.4,N
1617822975.9,286046996.4,N
1617822995.7,286046994.6,N
1617823015.6,286046996.0,N
1617823035.4,286046993.9,Y
1617823055.2,286046997.9,P
1617823075.1,286046998.8,N
1617823076.0,286046998.8,N
1617823095.8,286047001.1,N
1617823115.7,286046996.5,N
1617823135.5,286046999.0,N
1617823155.3,286047000.5,N
1617823175.2,286046999.0,N
1617823195.0,286046997.0,N
1617823195.9,286046997.0,N
1617823215.8,286046997.0,N
1617823235.6,286046995.6,Y
1617823255.4,286046998.7,P
1617823275.3,286046998.5,P
1617823295.1,286046998.7,P
1617823315.9,286046997.4,Y
1617823335.7,286046998.8,P
1617823355.5,286046999.1,P
1617823375.4,286046998.4,P
1617823395.2,286046999.3,N
1617823415.1,286047001.4,Y
1617823416.0,286047001.4,P
1617823435.8,286047004.6,P
1617823455.6,286047005.2,N
1617823475.5,286047003.7,N
1617823495.3,286047004.4,N
1617823515.2,286047004.2,N
1617823535.9,286047003.5,N
1617823555.7,286047001.3,N
1617823575.6,286047003.2,N
1617823595.4,286047002.5,N
1617823615.2,286047002.6,N
1617823635.1,286047002.5,N
1617823636.0,286047002.5,N
1617823655.8,286047002.0,N
1617823675.7,286047000.9,N
1617823695.5,286047002.2,N
1617823715.3,286047001.7,N
1617823735.2,286047001.4,N
1617823755.0,286047000.9,N
1617823755.9,286047000.9,N
1617823775.7,286046998.5,N
1617823795.6,286046998.2,N
1617823815.4,286046998.5,N
1617823835.3,286047000.8,N
1617823855.1,286047000.7,N
1617823856.0,286047000.7,N
1617823875.8,286047000.3,N
1617823895.7,286046998.2,N
1617823915.5,286046999.9,N
1617823935.3,286046999.9,N
1617823955.2,286047000.8,N
1617823975.0,286047000.8,N
1617823975.9,286047000.8,N
1617823995.8,286046998.4,N
1617824015.6,286046998.1,N
1617824035.4,286046999.0,N
1617824055.3,286046999.3,N
1617824075.1,286046997.6,N
1617824095.8,286046997.2,N
1617824115.7,286046998.8,N
1617824135.5,286047000.7,N
1617824155.4,286046998.8,N
1617824175.2,286046997.7,N
1617824195.0,286046999.6,N
1617824195.9,286046999.6,N
1617824215.8,286046997.5,N
1617824235.6,286046995.9,Y
1617824255.5,286046991.8,P
1617824275.3,286046994.6,N
1617824295.1,286046993.7,N
1617824315.9,286046995.0,N
1617824335.7,286046995.0,N
1617824355.5,286046997.9,N
1617824375.4,286046997.1,N
1617824395.2,286046997.1,N
1617824415.1,286047001.2,N
1617824416.0,286047001.2,N
1617824435.8,286046998.1,N
1617824455.6,286046997.5,N
1617824475.5,286046995.0,N
1617824495.3,286046998.1,N
1617824515.1,286046999.3,N
1617824535.9,286046997.2,N
1617824555.7,286046999.2,N
1617824575.6,286047001.2,N
1617824595.4,286046998.7,N
1617824615.2,286046998.3,N
1617824635.1,286047000.3,N
1617824636.0,286047000.3,N
1617824655.8,286047001.1,N
1617824675.6,286046999.2,N
1617824695.5,286046999.5,N
1617824715.3,286046997.6,N
1617824735.2,286046997.6,N
1617824755.9,286046997.5,N
1617824775.7,286046994.9,N
1617824795.6,286046995.1,N
1617824815.4,286046995.0,N
1617824835.2,286046995.0,N
1617824855.1,286046998.0,N
1617824856.0,286046998.0,N
1617824875.8,286046996.6,N
1617824895.7,286046997.0,N
1617824915.5,286046999.5,N
1617824935.3,286046998.3,N
1617824955.2,286046997.7,N
1617824975.0,286046997.5,N
1617824975.9,286046997.5,N
1617824995.7,286046994.5,Y
1617825015.6,286046993.7,P
1617825035.4,286046993.8,N
1617825055.3,286046995.0,N
1617825075.1,286046997.6,N
1617825076.0,286046997.6,N
1617825095.8,286046995.2,N
1617825115.7,286046993.6,Y
1617825135.5,286046998.0,P
1617825155.4,286046997.5,N
1617825175.2,286046999.3,N
1617825195.0,286046999.1,N
1617825195.9,286046999.1,N
1617825215.8,286046998.5,N
1617825235.6,286047000.4,N
1617825255.4,286047000.2,N
1617825275.3,286046998.9,N
1617825295.1,286046999.3,N
1617825315.9,286046998.5,N
1617825335.7,286046998.6,N
1617825355.5,286047013.7,Y
1617825375.4,286047015.9,P
1617825395.2,286047012.7,N
1617825415.0,286047011.7,N
1617825415.9,286047011.7,N
1617825435.8,286047012.4,N
1617825455.6,286047008.6,N
1617825475.5,286047005.5,N
1617825495.3,286047003.4,N
1617825515.1,286047003.8,N
1617825535.9,286046999.7,N
1617825555.7,286047001.6,N
1617825575.5,286047000.5,N
1617825595.4,286047003.7,N
